Regional Weather Roundup
Issued by NWS

Home | Current Version | Previous Version | Text Only | Print | Product List | Glossary On
Versions: 1 2 3 4 5 6 7 8 9 10 11 12 13 14 15 16 17 18 19 20 21 22 23 24 25 26 27 28 29 30 31 32 33 34 35 36 37 38 39 40 41 42 43 44
000
ASUS44 KLIX 250407
RWRLA
LOUISIANA WEATHER ROUNDUP
NATIONAL WEATHER SERVICE NEW ORLEANS LA
1000 PM CST SAT FEB 24 2018

NOTE: "FAIR" INDICATES FEW OR NO CLOUDS BELOW 12,000 FEET WITH NO
      SIGNIFICANT WEATHER AND/OR OBSTRUCTIONS TO VISIBILITY.
      SKY/WX - SKY CONDITION AND SIGNIFICANT WEATHER.
      TMP - AIR TEMPERATURE.    DP   - DEWPOINT TEMPERATURE.
      RH  - RELATIVE HUMIDITY.  PRES - PRESSURE.
      HX  - HEAT INDEX.         WCI  - WIND CHILL INDEX.

*  THESE STATIONS ARE NOT NWS OR FAA STATIONS AND ARE NOT UNDER
   NWS QUALITY CONTROL.

LAZ040-048-061>063-065-066-069-250500-
SOUTHEAST LOUISIANA

CITY           SKY/WX    TMP DP  RH WIND       PRES   REMARKS
N.O. INTL ARPT FAIR      73  71  93 S8        30.04S
N.O. LAKEFRONT FAIR      74  69  85 S13       30.04S
N.O. DOWNTOWN* FAIR      76  69  79 S8        30.05S
RESERVE*       MOCLDY    75  69  82 S9        30.04S
SLIDELL        CLOUDY    73  70  90 S6        30.04S
BATON ROUGE    FAIR      74  67  78 S12       30.00S
BOOTHVILLE     CLOUDY    74  71  91 S8        30.07S FOG
BELLE CHASSE   FAIR      72  72 100 S12       30.04S
BOGALUSA*      MOCLDY    73  68  83 SW6       30.04S
GALLIANO*      CLOUDY    74  68  80 S9        30.05S
NEW ROADS*     CLOUDY    73  68  86 S12       30.01R
GONZALES*      CLOUDY    74  69  83 S7        30.02R
HAMMOND*       CLOUDY    72  68  88 S7        30.03R
HOUMA*         CLOUDY    74  70  86 S8        30.04S
PORT FOURCHON* PTCLDY    73  72  94 S8        30.06S

$$

LAZ041-044-053-054-250500-
SOUTHWEST LOUISIANA

CITY           SKY/WX    TMP DP  RH WIND       PRES   REMARKS
LAKE CHARLES   CLOUDY    74  71  91 S12G17    29.97S
LAFAYETTE      CLOUDY    74  71  91 S12       30.01R
PATTERSON      CLOUDY    73  71  93 S10       30.03S
SALT POINT       N/A     71  69  93 VRB5      30.00S
NEW IBERIA     CLOUDY    73  69  87 S13       30.01S
CHENAULT AIRPK CLOUDY    73  70  88 S6        29.98R

$$

LAZ027-028-250500-
CENTRAL LOUISIANA

CITY           SKY/WX    TMP DP  RH WIND       PRES   REMARKS
FORT POLK      CLOUDY    72  69  90 S9        29.94S
ALEXANDRIA INT MOCLDY    72  68  87 S10       29.94S
ALEXANDRIA     MOCLDY    73  69  87 S9        29.96S

$$

LAZ001-002-250500-
NORTHWEST LOUISIANA

CITY           SKY/WX    TMP DP  RH WIND       PRES   REMARKS
SHREVEPORT     CLOUDY    57  54  89 N3        29.97R
BARKSDALE AFB  CLOUDY    55  51  86 CALM      29.98R
DTN SHREVEPORT CLOUDY    56  54  93 S5        29.98S

$$

LAZ014-016-250500-
NORTHEAST LOUISIANA

CITY           SKY/WX    TMP DP  RH WIND       PRES   REMARKS
MONROE         LGT RAIN  61  56  83 NW15G36   29.93R
TALLULAH       MOCLDY    73  68  84 S9        29.94S

$$





USA.gov is the U.S. government's official web portal to all federal, state and local government web resources and services.